Location: Brunembert
(50.7122°N, 1.8935°E)
Time: 04:45:15
(UTC+00:00)

ARIANE 5 R/B - Pass Details

Date: 22 April 2021
Orbit: 620 x 656 km, 98.1° (Epoch: 02 May)

Event Time Altitude Azimuth Distance (km) Brightness Sun altitude
Exits shadow 21:41:36 26° 212° (SSW) 1,252 3.9 -20.8°
Maximum altitude 21:43:30 40° 262° (W) 945 3.6 -21.0°
Drops below altitude 10° 21:47:38 10° 332° (NNW) 2,016 6.4 -21.3°
Sets 21:49:57 0° 340° (NNW) 2,924 7.4 -21.5°
